AirNav   Everest Fuels
 
 380 users online  

17MI Grace Hospital Heliport
Detroit, Michigan, USA

GOING TO DETROIT?


FAA INFORMATION EFFECTIVE 31 DECEMBER 2020

Location

FAA Identifier: 17MI
Lat/Long: 42-25-05.0100N 083-10-57.4200W
42-25.083500N 083-10.957000W
42.4180583,-83.1826167
(estimated)
Elevation: 662 ft. / 202 m (estimated)
Variation: 06W (1990)
Time zone: UTC -5 (UTC -4 during Daylight Saving Time)
Zip code: 48235

Heliport Operations

Heliport use: Private use, MEDICAL USE.
Activation date: 10/1994
Control tower: no
ARTCC: CLEVELAND CENTER
FSS: LANSING FLIGHT SERVICE STATION
Attendance: CONTINUOUS
Wind indicator: lighted
Segmented circle: no
Lights: SS-SR

Heliport Communications

WX AWOS-3 at VLL (7 nm N): 119.475 (248-288-4649)
WX ASOS at DET (8 nm E): PHONE 313-371-9696
WX ASOS at DTW (14 nm SW): PHONE 734-955-5015
WX ASOS at PTK (18 nm NW): 125.025 (248-886-8551)
WX ASOS at YIP (19 nm SW): PHONE 734-961-6843
WX AWOS-3 at ONZ (19 nm S): 119.675 (734-692-9686)

Nearby radio navigation aids

VOR radial/distance  VOR name  Freq  Var
DXOr040/14.8DETROIT VOR/DME113.4006W
SVMr091/18.2SALEM VORTAC114.3003W
CRLr032/25.3CARLETON VOR/DME115.7003W

 
NDB name  Hdg/Dist  Freq  Var  ID
GROSSE ILE003/19.141907WRYS .-. -.-- ...
TECUMSEH060/38.823906WTCU - -.-. ..-

Heliport Services

Runway Information

Helipad H1

Dimensions: 25 x 25 ft. / 8 x 8 m
Surface: concrete, in good condition
Runway edge lights: PERI
PERIMETER LIGHTS
Latitude: 42-25.083500N
Longitude: 083-10.957000W
Elevation: 662.0 ft.
Traffic pattern: leftleft

Heliport Ownership and Management from official FAA records

Ownership: Privately-owned
Owner: VHS SINAI-GRACE HOSPITAL
6071 W OUTER DR
DETROIT, MI 48235
Phone (313) 966-1952
Manager: WILLIAM GILBERT
6071 W OUTER DR
DETROIT, MI 48235
Phone (313) 966-1952

Additional Remarks

A52-H1 25 FT LIGHT POLE 126 FT S.
APCH/DEP 360/180
FOR CD CTC DETROIT APCH AT 800-499-8181.

Instrument Procedures

There are no published instrument procedures at 17MI.

Some nearby airports with instrument procedures:

KVLL - Oakland/Troy Airport (7 nm N)
KDET - Coleman A Young Municipal Airport (8 nm E)
1D2 - Canton-Plymouth-Mettetal Airport (13 nm W)
KDTW - Detroit Metro Wayne County Airport (14 nm SW)
KPTK - Oakland County International Airport (18 nm NW)
KYIP - Willow Run Airport (19 nm SW)
KONZ - Grosse Ile Municipal Airport (19 nm S)
KMTC - Selfridge Air National Guard Base (19 nm NE)
 
Loc | Ops | Rwys | IFR | FBO | Links
Com | Nav | Svcs | Stats | Notes
Area around 17MI (Grace Hospital Heliport)
 
Road maps at: MapQuest Bing Google
 
Aerial photo
No photo
 
Sectional chart

 
Airport distance calculator
Flying to Grace Hospital Heliport? Find the distance to fly.

From to 17MI

Sunrise and sunset
Times for 27-Jan-2021
 Local
(UTC-5)
 Zulu
(UTC)
Morning civil twilight07:2212:22
Sunrise07:5212:52
Sunset17:3922:39
Evening civil twilight18:0923:09

Current date and time
Zulu (UTC)  27-Jan-2021 07:41:22
Local (UTC-5)  27-Jan-2021 02:41:22
 
METAR
KDET 
7nm E 
270653Z 34008KT 10SM OVC033 M03/M07 A3013 RMK AO2 SLP212 T10331072
KVLL 
7nm N 
270715Z AUTO 33009G14KT 10SM OVC033 M04/M06 A3017 RMK AO2 T10421065
KDTW 
13nm SW 
270653Z 33005KT 10SM SCT015 OVC032 M04/M07 A3015 RMK AO2 SLP217 T10391072
CYQG 
13nm SE 
270700Z AUTO 33009G16KT 9SM OVC034 M03/M06 A3013 RMK SLP215
KPTK 
18nm NW 
270707Z AUTO 32011KT 10SM SCT013 OVC027 M06/M09 A3013 RMK AO2 T10611094
KYIP 
19nm SW 
270653Z 34007KT 10SM BKN032 M03/M09 A3015 RMK AO2 SLP214 T10331089 $
KONZ 
19nm S 
270715Z AUTO 34008KT 10SM OVC033 M03/M05 A3015 RMK AO2 T10321052
TAF
KDET 
7nm E 
270520Z 2706/2806 34011KT P6SM OVC015 FM271000 35010KT P6SM BKN025 FM272000 35010KT P6SM BKN035
KDTW 
13nm SW 
270520Z 2706/2812 34011KT P6SM OVC015 FM271000 35010KT P6SM BKN025 FM272000 35010KT P6SM BKN035
CYQG 
13nm SE 
270539Z 2706/2806 34012KT P6SM SCT015 OVC025 TEMPO 2706/2712 OVC015 FM271200 34010KT P6SM SCT025 TEMPO 2712/2715 BKN020 RMK FCST BASED ON AUTO OBS. NXT FCST BY 271200Z
KPTK 
18nm NW 
270520Z 2706/2806 34011KT P6SM OVC015 FM270900 34009KT P6SM BKN025 FM272000 35010KT P6SM BKN035
KYIP 
19nm SW 
270520Z 2706/2806 34011KT P6SM OVC015 FM271000 35010KT P6SM BKN025 FM272000 35010KT P6SM BKN035
NOTAMs
Click for the latest NOTAMs
NOTAMs are issued by the DoD/FAA and will open in a separate window not controlled by AirNav.

 

 
 

Would you like to see your business listed on this page?

 If your business provides an interesting product or service to pilots, flight crews, aircraft, or users of the Grace Hospital Heliport, you should consider listing it here.  To start the listing process, click on the button below
 
Add a business
 

Other Pages about Grace Hospital Heliport

Update a link
 
Copyright © AirNav, LLC. All rights reserved. Privacy Policy  Contact